Year,Month,Day,Hour,Minute,Value (Times are PST for temperature in C)
2010,04,19,00,00,11.40
2010,04,19,00,01,11.40
2010,04,19,00,02,11.40
2010,04,19,00,03,11.30
2010,04,19,00,04,11.30
2010,04,19,00,05,11.30
2010,04,19,00,06,11.30
2010,04,19,00,07,11.30
2010,04,19,00,08,11.30
2010,04,19,00,09,11.30
2010,04,19,00,10,11.30
2010,04,19,00,11,11.30
2010,04,19,00,12,11.30
2010,04,19,00,13,11.20
2010,04,19,00,14,11.20
2010,04,19,00,15,11.20
2010,04,19,00,16,11.20
2010,04,19,00,17,11.20
2010,04,19,00,18,11.20
2010,04,19,00,19,11.20
2010,04,19,00,20,11.20
2010,04,19,00,21,11.20
2010,04,19,00,22,11.20
2010,04,19,00,23,11.20
2010,04,19,00,24,11.10
2010,04,19,00,25,11.10
2010,04,19,00,26,11.10
2010,04,19,00,27,11.10
2010,04,19,00,28,11.10
2010,04,19,00,29,11.10
2010,04,19,00,30,11.10
2010,04,19,00,31,11.10
2010,04,19,00,32,11.10
2010,04,19,00,33,11.10
2010,04,19,00,34,11.10
2010,04,19,00,35,11.10
2010,04,19,00,36,11.10
2010,04,19,00,37,11.10
2010,04,19,00,38,11.10
2010,04,19,00,39,11.10
2010,04,19,00,40,11.10
2010,04,19,00,41,11.10
2010,04,19,00,42,11.10
2010,04,19,00,43,11.10
2010,04,19,00,44,11.10
2010,04,19,00,45,11.10
2010,04,19,00,46,11.10
2010,04,19,00,47,11.20
2010,04,19,00,48,11.20
2010,04,19,00,49,11.20
2010,04,19,00,50,11.10
2010,04,19,00,51,11.10
2010,04,19,00,52,11.10
2010,04,19,00,53,11.00
2010,04,19,00,54,11.00
2010,04,19,00,55,11.00
2010,04,19,00,56,11.00
2010,04,19,00,57,11.00
2010,04,19,00,58,11.00
2010,04,19,00,59,10.90
2010,04,19,01,00,10.90
2010,04,19,01,01,10.90
2010,04,19,01,02,10.90
2010,04,19,01,03,10.90
2010,04,19,01,04,10.90
2010,04,19,01,05,10.90
2010,04,19,01,06,10.90
2010,04,19,01,07,10.90
2010,04,19,01,08,11.00
2010,04,19,01,09,11.00
2010,04,19,01,10,11.10
2010,04,19,01,11,11.10
2010,04,19,01,12,11.10
2010,04,19,01,13,11.20
2010,04,19,01,14,11.20
2010,04,19,01,15,11.20
2010,04,19,01,16,11.30
2010,04,19,01,17,11.30
2010,04,19,01,18,11.30
2010,04,19,01,19,11.30
2010,04,19,01,20,11.30
2010,04,19,01,21,11.30
2010,04,19,01,22,11.30
2010,04,19,01,23,11.30
2010,04,19,01,24,11.30
2010,04,19,01,25,11.30
2010,04,19,01,26,11.30
2010,04,19,01,27,11.30
2010,04,19,01,28,11.30
2010,04,19,01,29,11.30
2010,04,19,01,30,11.30
2010,04,19,01,31,11.30
2010,04,19,01,32,11.20
2010,04,19,01,33,11.20
2010,04,19,01,34,11.20
2010,04,19,01,35,11.20
2010,04,19,01,36,11.20
2010,04,19,01,37,11.20
2010,04,19,01,38,11.20
2010,04,19,01,39,11.10
2010,04,19,01,40,11.10
2010,04,19,01,41,11.10
2010,04,19,01,42,11.10
2010,04,19,01,43,11.00
2010,04,19,01,44,11.00
2010,04,19,01,45,11.00
2010,04,19,01,46,11.00
2010,04,19,01,47,11.00
2010,04,19,01,48,11.00
2010,04,19,01,49,11.00
2010,04,19,01,50,10.90
2010,04,19,01,51,10.90
2010,04,19,01,52,10.90
2010,04,19,01,53,10.90
2010,04,19,01,54,10.90
2010,04,19,01,55,10.90
2010,04,19,01,56,10.90
2010,04,19,01,57,10.90
2010,04,19,01,58,10.90
2010,04,19,01,59,10.90
2010,04,19,02,00,10.90
2010,04,19,02,01,10.90
2010,04,19,02,02,10.90
2010,04,19,02,03,10.80
2010,04,19,02,04,10.80
2010,04,19,02,05,10.80
2010,04,19,02,06,10.80
2010,04,19,02,07,10.80
2010,04,19,02,08,10.80
2010,04,19,02,09,10.80
2010,04,19,02,10,10.80
2010,04,19,02,11,10.80
2010,04,19,02,12,10.80
2010,04,19,02,13,10.80
2010,04,19,02,14,10.80
2010,04,19,02,15,10.80
2010,04,19,02,16,10.80
2010,04,19,02,17,10.80
2010,04,19,02,18,10.80
2010,04,19,02,19,10.70
2010,04,19,02,20,10.70
2010,04,19,02,21,10.70
2010,04,19,02,22,10.70
2010,04,19,02,23,10.70
2010,04,19,02,24,10.70
2010,04,19,02,25,10.70
2010,04,19,02,26,10.70
2010,04,19,02,27,10.70
2010,04,19,02,28,10.60
2010,04,19,02,29,10.60
2010,04,19,02,30,10.60
2010,04,19,02,31,10.60
2010,04,19,02,32,10.60
2010,04,19,02,33,10.60
2010,04,19,02,34,10.60
2010,04,19,02,35,10.60
2010,04,19,02,36,10.60
2010,04,19,02,37,10.60
2010,04,19,02,38,10.60
2010,04,19,02,39,10.60
2010,04,19,02,40,10.60
2010,04,19,02,41,10.60
2010,04,19,02,42,10.60
2010,04,19,02,43,10.50
2010,04,19,02,44,10.50
2010,04,19,02,45,10.50
2010,04,19,02,46,10.50
2010,04,19,02,47,10.40
2010,04,19,02,48,10.40
2010,04,19,02,49,10.40
2010,04,19,02,50,10.40
2010,04,19,02,51,10.40
2010,04,19,02,52,10.30
2010,04,19,02,53,10.30
2010,04,19,02,54,10.30
2010,04,19,02,55,10.30
2010,04,19,02,56,10.20
2010,04,19,02,57,10.20
2010,04,19,02,58,10.20
2010,04,19,02,59,10.20
2010,04,19,03,00,10.20
2010,04,19,03,01,10.20
2010,04,19,03,02,10.20
2010,04,19,03,03,10.20
2010,04,19,03,04,10.20
2010,04,19,03,05,10.20
2010,04,19,03,06,10.20
2010,04,19,03,07,10.20
2010,04,19,03,08,10.20
2010,04,19,03,09,10.20
2010,04,19,03,10,10.20
2010,04,19,03,11,10.20
2010,04,19,03,12,10.20
2010,04,19,03,13,10.20
2010,04,19,03,14,10.20
2010,04,19,03,15,10.20
2010,04,19,03,16,10.20
2010,04,19,03,17,10.20
2010,04,19,03,18,10.10
2010,04,19,03,19,10.10
2010,04,19,03,20,10.10
2010,04,19,03,21,10.00
2010,04,19,03,22,10.00
2010,04,19,03,23,10.00
2010,04,19,03,24,9.90
2010,04,19,03,25,9.90
2010,04,19,03,26,9.90
2010,04,19,03,27,9.90
2010,04,19,03,28,9.90
2010,04,19,03,29,9.90
2010,04,19,03,30,9.90
2010,04,19,03,31,9.90
2010,04,19,03,32,9.90
2010,04,19,03,33,9.90
2010,04,19,03,34,9.80
2010,04,19,03,35,9.80
2010,04,19,03,36,9.80
2010,04,19,03,37,9.80
2010,04,19,03,38,9.80
2010,04,19,03,39,9.80
2010,04,19,03,40,9.80
2010,04,19,03,41,9.80
2010,04,19,03,42,9.80
2010,04,19,03,43,9.80
2010,04,19,03,44,9.80
2010,04,19,03,45,9.70
2010,04,19,03,46,9.70
2010,04,19,03,47,9.70
2010,04,19,03,48,9.70
2010,04,19,03,49,9.70
2010,04,19,03,50,9.70
2010,04,19,03,51,9.70
2010,04,19,03,52,9.70
2010,04,19,03,53,9.70
2010,04,19,03,54,9.70
2010,04,19,03,55,9.70
2010,04,19,03,56,9.60
2010,04,19,03,57,9.60
2010,04,19,03,58,9.60
2010,04,19,03,59,9.60
2010,04,19,04,00,9.60
2010,04,19,04,01,9.60
2010,04,19,04,02,9.60
2010,04,19,04,03,9.60
2010,04,19,04,04,9.60
2010,04,19,04,05,9.60
2010,04,19,04,06,9.50
2010,04,19,04,07,9.50
2010,04,19,04,08,9.50
2010,04,19,04,09,9.50
2010,04,19,04,10,9.40
2010,04,19,04,11,9.40
2010,04,19,04,12,9.40
2010,04,19,04,13,9.40
2010,04,19,04,14,9.40
2010,04,19,04,15,9.40
2010,04,19,04,16,9.40
2010,04,19,04,17,9.40
2010,04,19,04,18,9.40
2010,04,19,04,19,9.40
2010,04,19,04,20,9.40
2010,04,19,04,21,9.40
2010,04,19,04,22,9.40
2010,04,19,04,23,9.40
2010,04,19,04,24,9.40
2010,04,19,04,25,9.30
2010,04,19,04,26,9.30
2010,04,19,04,27,9.30
2010,04,19,04,28,9.30
2010,04,19,04,29,9.30
2010,04,19,04,30,9.30
2010,04,19,04,31,9.30
2010,04,19,04,32,9.30
2010,04,19,04,33,9.30
2010,04,19,04,34,9.30
2010,04,19,04,35,9.30
2010,04,19,04,36,9.30
2010,04,19,04,37,9.30
2010,04,19,04,38,9.20
2010,04,19,04,39,9.20
2010,04,19,04,40,9.20
2010,04,19,04,41,9.20
2010,04,19,04,42,9.20
2010,04,19,04,43,9.20
2010,04,19,04,44,9.20
2010,04,19,04,45,9.20
2010,04,19,04,46,9.20
2010,04,19,04,47,9.20
2010,04,19,04,48,9.20
2010,04,19,04,49,9.10
2010,04,19,04,50,9.10
2010,04,19,04,51,9.10
2010,04,19,04,52,9.10
2010,04,19,04,53,9.10
2010,04,19,04,54,9.10
2010,04,19,04,55,9.10
2010,04,19,04,56,9.10
2010,04,19,04,57,9.10
2010,04,19,04,58,9.10
2010,04,19,04,59,9.10
2010,04,19,05,00,9.00
2010,04,19,05,01,9.00
2010,04,19,05,02,9.00
2010,04,19,05,03,9.00
2010,04,19,05,04,8.90
2010,04,19,05,05,8.90
2010,04,19,05,06,8.90
2010,04,19,05,07,8.90
2010,04,19,05,08,8.90
2010,04,19,05,09,8.90
2010,04,19,05,10,8.90
2010,04,19,05,11,8.90
2010,04,19,05,12,8.80
2010,04,19,05,13,8.80
2010,04,19,05,14,8.80
2010,04,19,05,15,8.80
2010,04,19,05,16,8.80
2010,04,19,05,17,8.80
2010,04,19,05,18,8.80
2010,04,19,05,19,8.80
2010,04,19,05,20,8.80
2010,04,19,05,21,8.80
2010,04,19,05,22,8.80
2010,04,19,05,23,8.80
2010,04,19,05,24,8.80
2010,04,19,05,25,8.80
2010,04,19,05,26,8.80
2010,04,19,05,27,8.80
2010,04,19,05,28,8.80
2010,04,19,05,29,8.80
2010,04,19,05,30,8.80
2010,04,19,05,31,8.80
2010,04,19,05,32,8.70
2010,04,19,05,33,8.70
2010,04,19,05,34,8.70
2010,04,19,05,35,8.70
2010,04,19,05,36,8.70
2010,04,19,05,37,8.70
2010,04,19,05,38,8.70
2010,04,19,05,39,8.70
2010,04,19,05,40,8.70
2010,04,19,05,41,8.70
2010,04,19,05,42,8.70
2010,04,19,05,43,8.60
2010,04,19,05,44,8.60
2010,04,19,05,45,8.60
2010,04,19,05,46,8.60
2010,04,19,05,47,8.60
2010,04,19,05,48,8.60
2010,04,19,05,49,8.60
2010,04,19,05,50,8.60
2010,04,19,05,51,8.60
2010,04,19,05,52,8.60
2010,04,19,05,53,8.50
2010,04,19,05,54,8.50
2010,04,19,05,55,8.50
2010,04,19,05,56,8.50
2010,04,19,05,57,8.50
2010,04,19,05,58,8.50
2010,04,19,05,59,8.50
2010,04,19,06,00,8.50
2010,04,19,06,01,8.50
2010,04,19,06,02,8.50
2010,04,19,06,03,8.50
2010,04,19,06,04,8.50
2010,04,19,06,05,8.50
2010,04,19,06,06,8.50
2010,04,19,06,07,8.50
2010,04,19,06,08,8.50
2010,04,19,06,09,8.50
2010,04,19,06,10,8.50
2010,04,19,06,11,8.50
2010,04,19,06,12,8.50
2010,04,19,06,13,8.50
2010,04,19,06,14,8.40
2010,04,19,06,15,8.40
2010,04,19,06,16,8.40
2010,04,19,06,17,8.40
2010,04,19,06,18,8.40
2010,04,19,06,19,8.40
2010,04,19,06,20,8.40
2010,04,19,06,21,8.40
2010,04,19,06,22,8.40
2010,04,19,06,23,8.40
2010,04,19,06,24,8.40
2010,04,19,06,25,8.40
2010,04,19,06,26,8.40
2010,04,19,06,27,8.40
2010,04,19,06,28,8.40
2010,04,19,06,29,8.40
2010,04,19,06,30,8.40
2010,04,19,06,31,8.40
2010,04,19,06,32,8.40
2010,04,19,06,33,8.40
2010,04,19,06,34,8.40
2010,04,19,06,35,8.40
2010,04,19,06,36,8.50
2010,04,19,06,37,8.50
2010,04,19,06,38,8.50
2010,04,19,06,39,8.50
2010,04,19,06,40,8.50
2010,04,19,06,41,8.50
2010,04,19,06,42,8.50
2010,04,19,06,43,8.50
2010,04,19,06,44,8.50
2010,04,19,06,45,8.50
2010,04,19,06,46,8.50
2010,04,19,06,47,8.50
2010,04,19,06,48,8.60
2010,04,19,06,49,8.60
2010,04,19,06,50,8.60
2010,04,19,06,51,8.60
2010,04,19,06,52,8.60
2010,04,19,06,53,8.60
2010,04,19,06,54,8.60
2010,04,19,06,55,8.60
2010,04,19,06,56,8.70
2010,04,19,06,57,8.70
2010,04,19,06,58,8.70
2010,04,19,06,59,8.80
2010,04,19,07,00,8.80
2010,04,19,07,01,8.80
2010,04,19,07,02,8.80
2010,04,19,07,03,8.90
2010,04,19,07,04,8.90
2010,04,19,07,05,8.90
2010,04,19,07,06,8.90
2010,04,19,07,07,8.90
2010,04,19,07,08,8.90
2010,04,19,07,09,9.00
2010,04,19,07,10,9.00
2010,04,19,07,11,9.00
2010,04,19,07,12,9.10
2010,04,19,07,13,9.10
2010,04,19,07,14,9.10
2010,04,19,07,15,9.10
2010,04,19,07,16,9.10
2010,04,19,07,17,9.10
2010,04,19,07,18,9.10
2010,04,19,07,19,9.10
2010,04,19,07,20,9.10
2010,04,19,07,21,9.20
2010,04,19,07,22,9.20
2010,04,19,07,23,9.20
2010,04,19,07,24,9.20
2010,04,19,07,25,9.20
2010,04,19,07,26,9.20
2010,04,19,07,27,9.20
2010,04,19,07,28,9.30
2010,04,19,07,29,9.30
2010,04,19,07,30,9.40
2010,04,19,07,31,9.40
2010,04,19,07,32,9.50
2010,04,19,07,33,9.50
2010,04,19,07,34,9.60
2010,04,19,07,35,9.60
2010,04,19,07,36,9.60
2010,04,19,07,37,9.60
2010,04,19,07,38,9.70
2010,04,19,07,39,9.70
2010,04,19,07,40,9.70
2010,04,19,07,41,9.80
2010,04,19,07,42,9.80
2010,04,19,07,43,9.80
2010,04,19,07,44,9.90
2010,04,19,07,45,9.90
2010,04,19,07,46,9.90
2010,04,19,07,47,10.00
2010,04,19,07,48,10.00
2010,04,19,07,49,10.10
2010,04,19,07,50,10.10
2010,04,19,07,51,10.20
2010,04,19,07,52,10.20
2010,04,19,07,53,10.30
2010,04,19,07,54,10.30
2010,04,19,07,55,10.30
2010,04,19,07,56,10.40
2010,04,19,07,57,10.40
2010,04,19,07,58,10.40
2010,04,19,07,59,10.50
2010,04,19,08,00,10.50
2010,04,19,08,01,10.50
2010,04,19,08,02,10.60
2010,04,19,08,03,10.60
2010,04,19,08,04,10.60
2010,04,19,08,05,10.60
2010,04,19,08,06,10.60
2010,04,19,08,07,10.70
2010,04,19,08,08,10.70
2010,04,19,08,09,10.80
2010,04,19,08,10,10.80
2010,04,19,08,11,10.80
2010,04,19,08,12,10.80
2010,04,19,08,13,10.80
2010,04,19,08,14,10.80
2010,04,19,08,15,10.90
2010,04,19,08,16,10.90
2010,04,19,08,17,10.90
2010,04,19,08,18,10.90
2010,04,19,08,19,10.90
2010,04,19,08,20,10.90
2010,04,19,08,21,10.90
2010,04,19,08,22,10.90
2010,04,19,08,23,10.90
2010,04,19,08,24,11.00
2010,04,19,08,25,11.00
2010,04,19,08,26,11.10
2010,04,19,08,27,11.10
2010,04,19,08,28,11.10
2010,04,19,08,29,11.20
2010,04,19,08,30,11.20
2010,04,19,08,31,11.30
2010,04,19,08,32,11.30
2010,04,19,08,33,11.40
2010,04,19,08,34,11.50
2010,04,19,08,35,11.50
2010,04,19,08,36,11.60
2010,04,19,08,37,11.70
2010,04,19,08,38,11.70
2010,04,19,08,39,11.80
2010,04,19,08,40,11.80
2010,04,19,08,41,11.80
2010,04,19,08,42,11.80
2010,04,19,08,43,11.80
2010,04,19,08,44,11.80
2010,04,19,08,45,11.80
2010,04,19,08,46,11.80
2010,04,19,08,47,11.70
2010,04,19,08,48,11.70
2010,04,19,08,49,11.70
2010,04,19,08,50,11.70
2010,04,19,08,51,11.70
2010,04,19,08,52,11.70
2010,04,19,08,53,11.70
2010,04,19,08,54,11.70
2010,04,19,08,55,11.60
2010,04,19,08,56,11.60
2010,04,19,08,57,11.60
2010,04,19,08,58,11.60
2010,04,19,08,59,11.60
2010,04,19,09,00,11.60
2010,04,19,09,01,11.50
2010,04,19,09,02,11.50
2010,04,19,09,03,11.50
2010,04,19,09,04,11.40
2010,04,19,09,05,11.40
2010,04,19,09,06,11.40
2010,04,19,09,07,11.40
2010,04,19,09,08,11.40
2010,04,19,09,09,11.40
2010,04,19,09,10,11.40
2010,04,19,09,11,11.40
2010,04,19,09,12,11.30
2010,04,19,09,13,11.30
2010,04,19,09,14,11.30
2010,04,19,09,15,11.30
2010,04,19,09,16,11.30
2010,04,19,09,17,11.30
2010,04,19,09,18,11.30
2010,04,19,09,19,11.30
2010,04,19,09,20,11.40
2010,04,19,09,21,11.40
2010,04,19,09,22,11.40
2010,04,19,09,23,11.40
2010,04,19,09,24,11.40
2010,04,19,09,25,11.40
2010,04,19,09,26,11.40
2010,04,19,09,27,11.40
2010,04,19,09,28,11.40
2010,04,19,09,29,11.40
2010,04,19,09,30,11.40
2010,04,19,09,31,11.40
2010,04,19,09,32,11.30
2010,04,19,09,33,11.30
2010,04,19,09,34,11.30
2010,04,19,09,35,11.30
2010,04,19,09,36,11.30
2010,04,19,09,37,11.30
2010,04,19,09,38,11.20
2010,04,19,09,39,11.20
2010,04,19,09,40,11.20
2010,04,19,09,41,11.20
2010,04,19,09,42,11.20
2010,04,19,09,43,11.20
2010,04,19,09,44,11.20
2010,04,19,09,45,11.20
2010,04,19,09,46,11.20
2010,04,19,09,47,11.20
2010,04,19,09,48,11.20
2010,04,19,09,49,11.10
2010,04,19,09,50,11.20
2010,04,19,09,51,11.20
2010,04,19,09,52,11.20
2010,04,19,09,53,11.20
2010,04,19,09,54,11.30
2010,04,19,09,55,11.30
2010,04,19,09,56,11.40
2010,04,19,09,57,11.40
2010,04,19,09,58,11.50
2010,04,19,09,59,11.50
2010,04,19,10,00,11.60
2010,04,19,10,01,11.60
2010,04,19,10,02,11.70
2010,04,19,10,03,11.70
2010,04,19,10,04,11.80
2010,04,19,10,05,11.80
2010,04,19,10,06,11.90
2010,04,19,10,07,12.00
2010,04,19,10,08,12.10
2010,04,19,10,09,12.10
2010,04,19,10,10,12.10
2010,04,19,10,11,12.10
2010,04,19,10,12,12.10
2010,04,19,10,13,12.00
2010,04,19,10,14,12.00
2010,04,19,10,15,11.90
2010,04,19,10,16,11.90
2010,04,19,10,17,11.90
2010,04,19,10,18,11.90
2010,04,19,10,19,11.90
2010,04,19,10,20,12.00
2010,04,19,10,21,12.00
2010,04,19,10,22,12.00
2010,04,19,10,23,12.00
2010,04,19,10,24,12.00
2010,04,19,10,25,12.00
2010,04,19,10,26,12.10
2010,04,19,10,27,12.10
2010,04,19,10,28,12.10
2010,04,19,10,29,12.10
2010,04,19,10,30,12.10
2010,04,19,10,31,12.10
2010,04,19,10,32,12.10
2010,04,19,10,33,12.10
2010,04,19,10,34,12.10
2010,04,19,10,35,12.10
2010,04,19,10,36,12.10
2010,04,19,10,37,12.10
2010,04,19,10,38,12.10
2010,04,19,10,39,12.10
2010,04,19,10,40,12.10
2010,04,19,10,41,12.10
2010,04,19,10,42,12.10
2010,04,19,10,43,12.20
2010,04,19,10,44,12.20
2010,04,19,10,45,12.20
2010,04,19,10,46,12.20
2010,04,19,10,47,12.30
2010,04,19,10,48,12.30
2010,04,19,10,49,12.40
2010,04,19,10,50,12.40
2010,04,19,10,51,12.40
2010,04,19,10,52,12.50
2010,04,19,10,53,12.50
2010,04,19,10,54,12.60
2010,04,19,10,55,12.60
2010,04,19,10,56,12.70
2010,04,19,10,57,12.70
2010,04,19,10,58,12.80
2010,04,19,10,59,12.90
2010,04,19,11,00,12.90
2010,04,19,11,01,12.90
2010,04,19,11,02,12.90
2010,04,19,11,03,12.90
2010,04,19,11,04,13.00
2010,04,19,11,05,13.00
2010,04,19,11,06,13.10
2010,04,19,11,07,13.20
2010,04,19,11,08,13.20
2010,04,19,11,09,13.20
2010,04,19,11,10,13.20
2010,04,19,11,11,13.20
2010,04,19,11,12,13.20
2010,04,19,11,13,13.10
2010,04,19,11,14,13.10
2010,04,19,11,15,13.10
2010,04,19,11,16,13.10
2010,04,19,11,17,13.00
2010,04,19,11,18,12.90
2010,04,19,11,19,12.80
2010,04,19,11,20,12.80
2010,04,19,11,21,12.80
2010,04,19,11,22,12.80
2010,04,19,11,23,12.70
2010,04,19,11,24,12.70
2010,04,19,11,25,12.70
2010,04,19,11,26,12.70
2010,04,19,11,27,12.70
2010,04,19,11,28,12.70
2010,04,19,11,29,12.80
2010,04,19,11,30,12.80
2010,04,19,11,31,12.90
2010,04,19,11,32,12.90
2010,04,19,11,33,12.90
2010,04,19,11,34,12.90
2010,04,19,11,35,12.80
2010,04,19,11,36,12.80
2010,04,19,11,37,12.70
2010,04,19,11,38,12.70
2010,04,19,11,39,12.70
2010,04,19,11,40,12.70
2010,04,19,11,41,12.60
2010,04,19,11,42,12.60
2010,04,19,11,43,12.60
2010,04,19,11,44,12.70
2010,04,19,11,45,12.80
2010,04,19,11,46,12.90
2010,04,19,11,47,12.90
2010,04,19,11,48,12.90
2010,04,19,11,49,12.90
2010,04,19,11,50,12.90
2010,04,19,11,51,12.90
2010,04,19,11,52,13.00
2010,04,19,11,53,13.10
2010,04,19,11,54,13.10
2010,04,19,11,55,13.00
2010,04,19,11,56,13.00
2010,04,19,11,57,12.90
2010,04,19,11,58,12.90
2010,04,19,11,59,13.00
2010,04,19,12,00,13.00
2010,04,19,12,01,13.00
2010,04,19,12,02,13.00
2010,04,19,12,03,13.00
2010,04,19,12,04,13.10
2010,04,19,12,05,13.20
2010,04,19,12,06,13.20
2010,04,19,12,07,13.20
2010,04,19,12,08,13.10
2010,04,19,12,09,13.10
2010,04,19,12,10,13.10
2010,04,19,12,11,13.10
2010,04,19,12,12,13.10
2010,04,19,12,13,13.00
2010,04,19,12,14,13.00
2010,04,19,12,15,13.00
2010,04,19,12,16,13.10
2010,04,19,12,17,13.00
2010,04,19,12,18,13.00
2010,04,19,12,19,13.00
2010,04,19,12,20,13.00
2010,04,19,12,21,13.00
2010,04,19,12,22,13.00
2010,04,19,12,23,13.10
2010,04,19,12,24,13.10
2010,04,19,12,25,13.20
2010,04,19,12,26,13.20
2010,04,19,12,27,13.20
2010,04,19,12,28,13.30
2010,04,19,12,29,13.30
2010,04,19,12,30,13.30
2010,04,19,12,31,13.40
2010,04,19,12,32,13.40
2010,04,19,12,33,13.50
2010,04,19,12,34,13.50
2010,04,19,12,35,13.60
2010,04,19,12,36,13.60
2010,04,19,12,37,13.70
2010,04,19,12,38,13.80
2010,04,19,12,39,13.80
2010,04,19,12,40,13.80
2010,04,19,12,41,13.80
2010,04,19,12,42,13.80
2010,04,19,12,43,13.80
2010,04,19,12,44,13.80
2010,04,19,12,45,13.80
2010,04,19,12,46,13.90
2010,04,19,12,47,13.90
2010,04,19,12,48,13.90
2010,04,19,12,49,13.90
2010,04,19,12,50,13.90
2010,04,19,12,51,13.90
2010,04,19,12,52,14.00
2010,04,19,12,53,13.90
2010,04,19,12,54,13.90
2010,04,19,12,55,13.90
2010,04,19,12,56,13.80
2010,04,19,12,57,13.80
2010,04,19,12,58,13.70
2010,04,19,12,59,13.70
2010,04,19,13,00,13.60
2010,04,19,13,01,13.50
2010,04,19,13,02,13.50
2010,04,19,13,03,13.40
2010,04,19,13,04,13.40
2010,04,19,13,05,13.40
2010,04,19,13,06,13.30
2010,04,19,13,07,13.20
2010,04,19,13,08,13.10
2010,04,19,13,09,13.10
2010,04,19,13,10,13.10
2010,04,19,13,11,13.10
2010,04,19,13,12,13.20
2010,04,19,13,13,13.10
2010,04,19,13,14,13.10
2010,04,19,13,15,13.20
2010,04,19,13,16,13.30
2010,04,19,13,17,13.30
2010,04,19,13,18,13.50
2010,04,19,13,19,13.50
2010,04,19,13,20,13.60
2010,04,19,13,21,13.60
2010,04,19,13,22,13.60
2010,04,19,13,23,13.60
2010,04,19,13,24,13.50
2010,04,19,13,25,13.50
2010,04,19,13,26,13.60
2010,04,19,13,27,13.60
2010,04,19,13,28,13.50
2010,04,19,13,29,13.50
2010,04,19,13,30,13.50
2010,04,19,13,31,13.40
2010,04,19,13,32,13.40
2010,04,19,13,33,13.50
2010,04,19,13,34,13.60
2010,04,19,13,35,13.60
2010,04,19,13,36,13.60
2010,04,19,13,37,13.70
2010,04,19,13,38,13.60
2010,04,19,13,39,13.60
2010,04,19,13,40,13.70
2010,04,19,13,41,13.70
2010,04,19,13,42,13.80
2010,04,19,13,43,13.90
2010,04,19,13,44,14.00
2010,04,19,13,45,14.20
2010,04,19,13,46,14.20
2010,04,19,13,47,14.20
2010,04,19,13,48,14.10
2010,04,19,13,49,14.00
2010,04,19,13,50,13.90
2010,04,19,13,51,13.80
2010,04,19,13,52,13.80
2010,04,19,13,53,13.80
2010,04,19,13,54,13.70
2010,04,19,13,55,13.70
2010,04,19,13,56,13.70
2010,04,19,13,57,13.70
2010,04,19,13,58,13.70
2010,04,19,13,59,13.50
2010,04,19,14,00,13.50
2010,04,19,14,01,13.50
2010,04,19,14,02,13.40
2010,04,19,14,03,13.50
2010,04,19,14,04,13.60
2010,04,19,14,05,13.70
2010,04,19,14,06,13.70
2010,04,19,14,07,13.70
2010,04,19,14,08,13.70
2010,04,19,14,09,13.70
2010,04,19,14,10,13.80
2010,04,19,14,11,13.80
2010,04,19,14,12,13.80
2010,04,19,14,13,13.70
2010,04,19,14,14,13.70
2010,04,19,14,15,13.80
2010,04,19,14,16,13.80
2010,04,19,14,17,13.90
2010,04,19,14,18,14.00
2010,04,19,14,19,14.10
2010,04,19,14,20,14.10
2010,04,19,14,21,14.10
2010,04,19,14,22,14.10
2010,04,19,14,23,14.00
2010,04,19,14,24,14.00
2010,04,19,14,25,13.90
2010,04,19,14,26,13.80
2010,04,19,14,27,13.80
2010,04,19,14,28,13.90
2010,04,19,14,29,13.90
2010,04,19,14,30,14.00
2010,04,19,14,31,14.00
2010,04,19,14,32,13.90
2010,04,19,14,33,13.90
2010,04,19,14,34,14.00
2010,04,19,14,35,14.00
2010,04,19,14,36,14.10
2010,04,19,14,37,14.10
2010,04,19,14,38,14.20
2010,04,19,14,39,14.20
2010,04,19,14,40,14.30
2010,04,19,14,41,14.40
2010,04,19,14,42,14.50
2010,04,19,14,43,14.60
2010,04,19,14,44,14.80
2010,04,19,14,45,14.90
2010,04,19,14,46,15.00
2010,04,19,14,47,15.00
2010,04,19,14,48,15.00
2010,04,19,14,49,15.10
2010,04,19,14,50,15.20
2010,04,19,14,51,15.40
2010,04,19,14,52,15.50
2010,04,19,14,53,15.70
2010,04,19,14,54,15.70
2010,04,19,14,55,15.80
2010,04,19,14,56,16.00
2010,04,19,14,57,16.10
2010,04,19,14,58,16.20
2010,04,19,14,59,16.30
2010,04,19,15,00,16.40
2010,04,19,15,01,16.50
2010,04,19,15,02,16.60
2010,04,19,15,03,16.70
2010,04,19,15,04,16.70
2010,04,19,15,05,16.80
2010,04,19,15,06,16.80
2010,04,19,15,07,16.80
2010,04,19,15,08,16.80
2010,04,19,15,09,16.80
2010,04,19,15,10,16.80
2010,04,19,15,11,16.70
2010,04,19,15,12,16.70
2010,04,19,15,13,16.70
2010,04,19,15,14,16.70
2010,04,19,15,15,16.60
2010,04,19,15,16,16.50
2010,04,19,15,17,16.50
2010,04,19,15,18,16.40
2010,04,19,15,19,16.40
2010,04,19,15,20,16.30
2010,04,19,15,21,16.30
2010,04,19,15,22,16.30
2010,04,19,15,23,16.20
2010,04,19,15,24,16.20
2010,04,19,15,25,16.20
2010,04,19,15,26,16.10
2010,04,19,15,27,16.10
2010,04,19,15,28,16.00
2010,04,19,15,29,15.90
2010,04,19,15,30,15.90
2010,04,19,15,31,15.80
2010,04,19,15,32,15.80
2010,04,19,15,33,15.80
2010,04,19,15,34,15.80
2010,04,19,15,35,15.80
2010,04,19,15,36,15.80
2010,04,19,15,37,15.80
2010,04,19,15,38,15.70
2010,04,19,15,39,15.50
2010,04,19,15,40,15.40
2010,04,19,15,41,15.30
2010,04,19,15,42,15.20
2010,04,19,15,43,15.10
2010,04,19,15,44,15.00
2010,04,19,15,45,15.00
2010,04,19,15,46,15.00
2010,04,19,15,47,15.00
2010,04,19,15,48,15.00
2010,04,19,15,49,15.00
2010,04,19,15,50,15.00
2010,04,19,15,51,15.00
2010,04,19,15,52,15.00
2010,04,19,15,53,15.00
2010,04,19,15,54,15.00
2010,04,19,15,55,15.00
2010,04,19,15,56,15.00
2010,04,19,15,57,15.00
2010,04,19,15,58,15.00
2010,04,19,15,59,15.00
2010,04,19,16,00,15.00
2010,04,19,16,01,15.00
2010,04,19,16,02,15.00
2010,04,19,16,03,15.00
2010,04,19,16,04,15.00
2010,04,19,16,05,15.00
2010,04,19,16,06,15.00
2010,04,19,16,07,15.10
2010,04,19,16,08,15.00
2010,04,19,16,09,15.10
2010,04,19,16,10,15.10
2010,04,19,16,11,15.10
2010,04,19,16,12,15.10
2010,04,19,16,13,15.10
2010,04,19,16,14,15.10
2010,04,19,16,15,15.20
2010,04,19,16,16,15.20
2010,04,19,16,17,15.30
2010,04,19,16,18,15.40
2010,04,19,16,19,15.40
2010,04,19,16,20,15.50
2010,04,19,16,21,15.50
2010,04,19,16,22,15.60
2010,04,19,16,23,15.60
2010,04,19,16,24,15.60
2010,04,19,16,25,15.60
2010,04,19,16,26,15.70
2010,04,19,16,27,15.70
2010,04,19,16,28,15.70
2010,04,19,16,29,15.80
2010,04,19,16,30,15.80
2010,04,19,16,31,15.80
2010,04,19,16,32,15.90
2010,04,19,16,33,15.90
2010,04,19,16,34,15.90
2010,04,19,16,35,16.00
2010,04,19,16,36,16.00
2010,04,19,16,37,16.00
2010,04,19,16,38,16.00
2010,04,19,16,39,15.90
2010,04,19,16,40,15.90
2010,04,19,16,41,15.90
2010,04,19,16,42,15.80
2010,04,19,16,43,15.80
2010,04,19,16,44,15.80
2010,04,19,16,45,15.80
2010,04,19,16,46,15.80
2010,04,19,16,47,15.80
2010,04,19,16,48,15.70
2010,04,19,16,49,15.70
2010,04,19,16,50,15.70
2010,04,19,16,51,15.60
2010,04,19,16,52,15.60
2010,04,19,16,53,15.50
2010,04,19,16,54,15.50
2010,04,19,16,55,15.40
2010,04,19,16,56,15.40
2010,04,19,16,57,15.40
2010,04,19,16,58,15.40
2010,04,19,16,59,15.40
2010,04,19,17,00,15.40
2010,04,19,17,01,15.40
2010,04,19,17,02,15.30
2010,04,19,17,03,15.30
2010,04,19,17,04,15.20
2010,04,19,17,05,15.20
2010,04,19,17,06,15.20
2010,04,19,17,07,15.20
2010,04,19,17,08,15.20
2010,04,19,17,09,15.20
2010,04,19,17,10,15.20
2010,04,19,17,11,15.20
2010,04,19,17,12,15.20
2010,04,19,17,13,15.20
2010,04,19,17,14,15.20
2010,04,19,17,15,15.20
2010,04,19,17,16,15.20
2010,04,19,17,17,15.20
2010,04,19,17,18,15.20
2010,04,19,17,19,15.20
2010,04,19,17,20,15.20
2010,04,19,17,21,15.20
2010,04,19,17,22,15.20
2010,04,19,17,23,15.30
2010,04,19,17,24,15.30
2010,04,19,17,25,15.30
2010,04,19,17,26,15.30
2010,04,19,17,27,15.30
2010,04,19,17,28,15.30
2010,04,19,17,29,15.30
2010,04,19,17,30,15.30